ProjectID,Date,Electric Generation,Electric Utility Import,Facility Electric Load
,YYYY-MM-DD,kW,kW,kW
16,2002-12-01,0.0,,0.0
16,2002-12-02,0.0,,0.0
16,2002-12-03,0.0,,0.0
16,2002-12-04,0.0,,0.0
16,2002-12-05,0.0,,0.0
16,2002-12-06,0.0,,0.0
16,2002-12-07,0.0,,0.0
16,2002-12-08,0.0,,0.0
16,2002-12-09,0.0,,0.0
16,2002-12-10,0.0,,0.0
16,2002-12-11,0.0,,0.0
16,2002-12-12,0.0,,0.0
16,2002-12-13,0.0,,0.0
16,2002-12-14,0.0,,0.0
16,2002-12-15,0.0,,0.0
16,2002-12-16,0.0,,0.0
16,2002-12-17,0.0,,0.0
16,2002-12-18,0.0,,0.0
16,2002-12-19,2.416125,,2.416125
16,2002-12-20,3.730166666666667,,3.730166666666667
16,2002-12-21,0.0,,0.0
16,2002-12-22,0.0,,0.0
16,2002-12-23,0.0,,0.0
16,2002-12-24,0.0,,0.0
16,2002-12-25,0.0,,0.0
16,2002-12-26,9.64775,,9.64775
16,2002-12-27,8.565375,,8.565375
16,2002-12-28,0.0,,0.0
16,2002-12-29,0.0,,0.0
16,2002-12-30,0.0,,0.0
16,2002-12-31,0.0,,0.0
16,2003-01-01,66.81970833333334,,66.81970833333334
16,2003-01-02,102.630375,,102.630375
16,2003-01-03,108.94775,,108.94775
16,2003-01-04,111.54433333333333,,111.54433333333333
16,2003-01-05,112.18420833333333,,112.18420833333333
16,2003-01-06,29.742625,,29.742625
16,2003-01-07,39.70666666666667,,39.70666666666667
16,2003-01-08,119.30475,,119.30475
16,2003-01-09,119.28883333333333,,119.28883333333333
16,2003-01-10,119.31858333333334,,119.31858333333334
16,2003-01-11,119.36633333333333,,119.36633333333333
16,2003-01-12,119.31691666666667,,119.31691666666667
16,2003-01-13,119.34875,,119.34875
16,2003-01-14,119.35266666666666,,119.35266666666666
16,2003-01-15,119.38216666666666,,119.38216666666666
16,2003-01-16,119.16583333333334,,119.16583333333334
16,2003-01-17,51.6295,,51.6295
16,2003-01-18,0.0,,0.0
16,2003-01-19,0.00016666666666666666,,0.00016666666666666666
16,2003-01-20,0.0,,0.0
16,2003-01-21,0.0,,0.0
16,2003-01-22,52.804,,52.804
16,2003-01-23,119.32466666666666,,119.32466666666666
16,2003-01-24,118.73366666666668,,118.73366666666668
16,2003-01-25,119.38816666666666,,119.38816666666666
16,2003-01-26,119.36066666666666,,119.36066666666666
16,2003-01-27,119.37016666666666,,119.37016666666666
16,2003-01-28,119.3525,,119.3525
16,2003-01-29,119.31150000000001,,119.31150000000001
16,2003-01-30,119.31866666666667,,119.31866666666667
16,2003-01-31,119.02633333333334,,119.02633333333334
16,2003-02-01,117.86166666666666,,117.86166666666666
16,2003-02-02,119.32600000000001,,119.32600000000001
16,2003-02-03,119.23133333333334,,119.23133333333334
16,2003-02-04,114.075,,114.075
16,2003-02-05,119.224,,119.224
16,2003-02-06,119.234,,119.234
16,2003-02-07,119.25966666666666,,119.25966666666666
16,2003-02-08,119.30666666666667,,119.30666666666667
16,2003-02-09,119.32366666666667,,119.32366666666667
16,2003-02-10,119.25,,119.25
16,2003-02-11,118.884,,118.884
16,2003-02-12,119.173,,119.173
16,2003-02-13,119.23700000000001,,119.23700000000001
16,2003-02-14,119.21666666666665,,119.21666666666665
16,2003-02-15,118.86900000000001,,118.86900000000001
16,2003-02-16,119.16566666666667,,119.16566666666667
16,2003-02-17,119.27,,119.27
16,2003-02-18,119.17200000000001,,119.17200000000001
16,2003-02-19,119.23333333333333,,119.23333333333333
16,2003-02-20,119.17933333333333,,119.17933333333333
16,2003-02-21,119.26733333333334,,119.26733333333334
16,2003-02-22,119.075,,119.075
16,2003-02-23,118.32,,118.32
16,2003-02-24,119.22866666666665,,119.22866666666665
16,2003-02-25,119.27199999999999,,119.27199999999999
16,2003-02-26,119.21266666666666,,119.21266666666666
16,2003-02-27,119.24400000000001,,119.24400000000001
16,2003-02-28,119.28266666666667,,119.28266666666667
16,2003-03-01,118.952,,118.952
16,2003-03-02,119.132,,119.132
16,2003-03-03,119.27466666666668,,119.27466666666668
16,2003-03-04,119.29733333333333,,119.29733333333333
16,2003-03-05,119.14333333333333,,119.14333333333333
16,2003-03-06,119.31466666666667,,119.31466666666667
16,2003-03-07,119.332,,119.332
16,2003-03-08,119.30333333333334,,119.30333333333334
16,2003-03-09,119.27066666666667,,119.27066666666667
16,2003-03-10,119.24466666666666,,119.24466666666666
16,2003-03-11,119.28866666666666,,119.28866666666666
16,2003-03-12,119.274,,119.274
16,2003-03-13,119.29466666666667,,119.29466666666667
16,2003-03-14,118.93400000000001,,118.93400000000001
16,2003-03-15,119.26666666666667,,119.26666666666667
16,2003-03-16,117.33733333333333,,117.33733333333333
16,2003-03-17,115.43133333333333,,115.43133333333333
16,2003-03-18,119.31133333333334,,119.31133333333334
16,2003-03-19,118.854,,118.854
16,2003-03-20,119.206,,119.206
16,2003-03-21,118.402,,118.402
16,2003-03-22,119.08933333333333,,119.08933333333333
16,2003-03-23,119.06533333333334,,119.06533333333334
16,2003-03-24,117.37,,117.37
16,2003-03-25,115.56133333333334,,115.56133333333334
16,2003-03-26,109.306,,109.306
16,2003-03-27,118.65933333333334,,118.65933333333334
16,2003-03-28,111.074,,111.074
16,2003-03-29,117.52933333333334,,117.52933333333334
16,2003-03-30,119.27866666666667,,119.27866666666667
16,2003-03-31,119.25666666666666,,119.25666666666666
16,2003-04-01,119.16266666666667,,119.16266666666667
16,2003-04-02,119.14800000000001,,119.14800000000001
16,2003-04-03,119.252,,119.252
16,2003-04-04,119.12533333333333,,119.12533333333333
16,2003-04-05,118.80066666666666,,118.80066666666666
16,2003-04-06,114.358,,114.358
16,2003-04-07,119.236,,119.236
16,2003-04-08,118.08066666666667,,118.08066666666667
16,2003-04-09,119.31733333333334,,119.31733333333334
16,2003-04-10,114.89,,114.89
16,2003-04-11,117.58933333333333,,117.58933333333333
16,2003-04-12,118.248,,118.248
16,2003-04-13,119.21466666666667,,119.21466666666667
16,2003-04-14,115.596,,115.596
16,2003-04-15,108.02133333333335,,108.02133333333335
16,2003-04-16,116.60266666666666,,116.60266666666666
16,2003-04-17,119.11200000000001,,119.11200000000001
16,2003-04-18,115.536,,115.536
16,2003-04-19,114.276,,114.276
16,2003-04-20,107.452,,107.452
16,2003-04-21,113.868,,113.868
16,2003-04-22,118.87733333333334,,118.87733333333334
16,2003-04-23,119.01466666666666,,119.01466666666666
16,2003-04-24,118.65866666666666,,118.65866666666666
16,2003-04-25,116.10533333333332,,116.10533333333332
16,2003-04-26,116.82799999999999,,116.82799999999999
16,2003-04-27,117.07600000000001,,117.07600000000001
16,2003-04-28,110.20400000000001,,110.20400000000001
16,2003-04-29,116.72800000000001,,116.72800000000001
16,2003-04-30,116.17333333333333,,116.17333333333333
16,2003-05-01,109.18,,109.18
16,2003-05-02,116.33733333333333,,116.33733333333333
16,2003-05-03,117.64933333333333,,117.64933333333333
16,2003-05-04,114.604,,114.604
16,2003-05-05,115.79866666666668,,115.79866666666668
16,2003-05-06,110.892,,110.892
16,2003-05-07,114.97066666666666,,114.97066666666666
16,2003-05-08,113.00266666666666,,113.00266666666666
16,2003-05-09,113.27466666666668,,113.27466666666668
16,2003-05-10,108.56266666666666,,108.56266666666666
16,2003-05-11,107.34533333333333,,107.34533333333333
16,2003-05-12,106.532,,106.532
16,2003-05-13,71.148,,71.148
16,2003-05-14,115.24533333333333,,115.24533333333333
16,2003-05-15,113.96266666666666,,113.96266666666666
16,2003-05-16,115.71733333333333,,115.71733333333333
16,2003-05-17,112.79866666666668,,112.79866666666668
16,2003-05-18,109.81866666666667,,109.81866666666667
16,2003-05-19,108.04666666666667,,108.04666666666667
16,2003-05-20,108.71600000000001,,108.71600000000001
16,2003-05-21,116.89333333333333,,116.89333333333333
16,2003-05-22,114.79333333333334,,114.79333333333334
16,2003-05-23,111.65866666666666,,111.65866666666666
16,2003-05-24,112.72933333333333,,112.72933333333333
16,2003-05-25,112.01333333333334,,112.01333333333334
16,2003-05-26,111.492,,111.492
16,2003-05-27,111.93066666666665,,111.93066666666665
16,2003-05-28,111.584,,111.584
16,2003-05-29,107.52933333333334,,107.52933333333334
16,2003-05-30,107.23066666666666,,107.23066666666666
16,2003-05-31,110.41466666666668,,110.41466666666668
16,2003-06-01,113.43599999999999,,113.43599999999999
16,2003-06-02,111.0,,111.0
16,2003-06-03,110.32266666666668,,110.32266666666668
16,2003-06-04,107.992,,107.992
16,2003-06-05,110.36266666666667,,110.36266666666667
16,2003-06-06,107.41066666666667,,107.41066666666667
16,2003-06-07,104.56533333333334,,104.56533333333334
16,2003-06-08,102.61733333333332,,102.61733333333332
16,2003-06-09,105.264,,105.264
16,2003-06-10,103.55066666666666,,103.55066666666666
16,2003-06-11,101.33333333333333,,101.33333333333333
16,2003-06-12,105.82799999999999,,105.82799999999999
16,2003-06-13,105.51066666666667,,105.51066666666667
16,2003-06-14,104.19733333333333,,104.19733333333333
16,2003-06-15,102.99733333333334,,102.99733333333334
16,2003-06-16,104.95733333333334,,104.95733333333334
16,2003-06-17,102.044,,102.044
16,2003-06-18,102.66266666666667,,102.66266666666667
16,2003-06-19,103.77466666666668,,103.77466666666668
16,2003-06-20,106.37466666666667,,106.37466666666667
16,2003-06-21,106.84933333333333,,106.84933333333333
16,2003-06-22,102.452,,102.452
16,2003-06-23,99.31599999999999,,99.31599999999999
16,2003-06-24,97.39866666666667,,97.39866666666667
16,2003-06-25,95.78533333333333,,95.78533333333333
16,2003-06-26,92.18933333333332,,92.18933333333332
16,2003-06-27,100.70133333333332,,100.70133333333332
16,2003-06-28,97.78933333333333,,97.78933333333333
16,2003-06-29,99.32533333333333,,99.32533333333333
16,2003-06-30,100.94133333333333,,100.94133333333333
16,2003-07-01,98.32933333333334,,98.32933333333334
16,2003-07-02,95.676,,95.676
16,2003-07-03,93.0,,93.0
16,2003-07-04,93.04133333333334,,93.04133333333334
16,2003-07-05,95.52533333333334,,95.52533333333334
16,2003-07-06,94.14266666666667,,94.14266666666667
16,2003-07-07,97.14533333333333,,97.14533333333333
16,2003-07-08,93.93733333333334,,93.93733333333334
16,2003-07-09,97.81599999999999,,97.81599999999999
16,2003-07-10,100.29466666666667,,100.29466666666667
16,2003-07-11,97.89066666666668,,97.89066666666668
16,2003-07-12,101.76133333333333,,101.76133333333333
16,2003-07-13,98.86933333333333,,98.86933333333333
16,2003-07-14,98.104,,98.104
16,2003-07-15,94.276,,94.276
16,2003-07-16,100.22533333333332,,100.22533333333332
16,2003-07-17,99.32533333333333,,99.32533333333333
16,2003-07-18,98.29066666666667,,98.29066666666667
16,2003-07-19,100.43599999999999,,100.43599999999999
16,2003-07-20,100.47466666666666,,100.47466666666666
16,2003-07-21,98.01333333333334,,98.01333333333334
16,2003-07-22,98.12533333333333,,98.12533333333333
16,2003-07-23,99.77066666666667,,99.77066666666667
16,2003-07-24,99.64266666666667,,99.64266666666667
16,2003-07-25,98.27199999999999,,98.27199999999999
16,2003-07-26,96.87733333333334,,96.87733333333334
16,2003-07-27,95.31733333333334,,95.31733333333334
16,2003-07-28,99.60266666666666,,99.60266666666666
16,2003-07-29,98.59733333333332,,98.59733333333332
16,2003-07-30,96.77333333333333,,96.77333333333333
16,2003-07-31,95.48266666666666,,95.48266666666666
16,2003-08-01,95.472,,95.472
16,2003-08-02,95.13066666666667,,95.13066666666667
16,2003-08-03,96.25066666666667,,96.25066666666667
16,2003-08-04,92.472,,92.472
16,2003-08-05,95.67466666666667,,95.67466666666667
16,2003-08-06,94.76266666666668,,94.76266666666668
16,2003-08-07,93.26133333333333,,93.26133333333333
16,2003-08-08,94.10666666666667,,94.10666666666667
16,2003-08-09,94.79733333333333,,94.79733333333333
16,2003-08-10,93.76533333333333,,93.76533333333333
16,2003-08-11,95.448,,95.448
16,2003-08-12,94.73333333333333,,94.73333333333333
16,2003-08-13,93.40266666666668,,93.40266666666668
16,2003-08-14,63.202666666666666,,63.202666666666666
16,2003-08-15,48.21333333333333,,48.21333333333333
16,2003-08-16,88.68,,88.68
16,2003-08-17,94.81333333333333,,94.81333333333333
16,2003-08-18,94.80266666666667,,94.80266666666667
16,2003-08-19,88.94666666666666,,88.94666666666666
16,2003-08-20,97.248,,97.248
16,2003-08-21,92.62666666666667,,92.62666666666667
16,2003-08-22,93.336,,93.336
16,2003-08-23,99.33066666666667,,99.33066666666667
16,2003-08-24,101.56,,101.56
16,2003-08-25,93.78933333333333,,93.78933333333333
16,2003-08-26,94.72000000000001,,94.72000000000001
16,2003-08-27,94.45866666666666,,94.45866666666666
16,2003-08-28,100.40533333333333,,100.40533333333333
16,2003-08-29,93.408,,93.408
16,2003-08-30,102.34933333333333,,102.34933333333333
16,2003-08-31,103.37866666666667,,103.37866666666667
16,2003-09-01,102.92533333333334,,102.92533333333334
16,2003-09-02,101.48533333333334,,101.48533333333334
16,2003-09-03,98.12266666666666,,98.12266666666666
16,2003-09-04,97.95466666666665,,97.95466666666665
16,2003-09-05,102.53866666666666,,102.53866666666666
16,2003-09-06,101.73066666666666,,101.73066666666666
16,2003-09-07,98.496,,98.496
16,2003-09-08,99.848,,99.848
16,2003-09-09,102.544,,102.544
16,2003-09-10,100.24266666666666,,100.24266666666666
16,2003-09-11,99.07733333333334,,99.07733333333334
16,2003-09-12,98.70933333333333,,98.70933333333333
16,2003-09-13,98.29066666666667,,98.29066666666667
16,2003-09-14,94.69066666666667,,94.69066666666667
16,2003-09-15,98.45866666666666,,98.45866666666666
16,2003-09-16,101.07466666666666,,101.07466666666666
16,2003-09-17,100.89066666666668,,100.89066666666668
16,2003-09-18,101.55466666666666,,101.55466666666666
16,2003-09-19,97.39733333333334,,97.39733333333334
16,2003-09-20,103.26133333333333,,103.26133333333333
16,2003-09-21,105.53866666666666,,105.53866666666666
16,2003-09-22,100.56266666666666,,100.56266666666666
16,2003-09-23,100.57066666666667,,100.57066666666667
16,2003-09-24,100.81866666666667,,100.81866666666667
16,2003-09-25,102.56,,102.56
16,2003-09-26,103.81066666666668,,103.81066666666668
16,2003-09-27,98.93066666666665,,98.93066666666665
16,2003-09-28,104.18666666666667,,104.18666666666667
16,2003-09-29,107.81866666666667,,107.81866666666667
16,2003-09-30,110.35199999999999,,110.35199999999999
16,2003-10-01,112.688,,112.688
16,2003-10-02,114.37866666666667,,114.37866666666667
16,2003-10-03,110.64800000000001,,110.64800000000001
16,2003-10-04,110.36,,110.36
16,2003-10-05,112.432,,112.432
16,2003-10-06,113.78133333333334,,113.78133333333334
16,2003-10-07,111.848,,111.848
16,2003-10-08,105.00533333333334,,105.00533333333334
16,2003-10-09,102.032,,102.032
16,2003-10-10,100.23466666666667,,100.23466666666667
16,2003-10-11,101.21066666666667,,101.21066666666667
16,2003-10-12,103.176,,103.176
16,2003-10-13,107.44533333333334,,107.44533333333334
16,2003-10-14,104.11200000000001,,104.11200000000001
16,2003-10-15,106.39733333333334,,106.39733333333334
16,2003-10-16,109.98666666666666,,109.98666666666666
16,2003-10-17,112.79466666666667,,112.79466666666667
16,2003-10-18,113.26666666666667,,113.26666666666667
16,2003-10-19,112.93066666666665,,112.93066666666665
16,2003-10-20,108.09066666666666,,108.09066666666666
16,2003-10-21,104.02133333333335,,104.02133333333335
16,2003-10-22,114.81866666666667,,114.81866666666667
16,2003-10-23,115.81866666666667,,115.81866666666667
16,2003-10-24,114.75999999999999,,114.75999999999999
16,2003-10-25,111.44266666666665,,111.44266666666665
16,2003-10-26,105.13066666666667,,105.13066666666667
16,2003-10-27,110.62933333333332,,110.62933333333332
16,2003-10-28,109.928,,109.928
16,2003-10-29,109.528,,109.528
16,2003-10-30,110.0,,110.0
16,2003-10-31,99.73866666666667,,99.73866666666667
16,2003-11-01,106.46933333333334,,106.46933333333334
16,2003-11-02,109.632,,109.632
16,2003-11-03,109.22933333333333,,109.22933333333333
16,2003-11-04,110.47733333333333,,110.47733333333333
16,2003-11-05,105.14933333333333,,105.14933333333333
16,2003-11-06,114.36,,114.36
16,2003-11-07,114.18133333333333,,114.18133333333333
16,2003-11-08,117.74400000000001,,117.74400000000001
16,2003-11-09,117.84266666666667,,117.84266666666667
16,2003-11-10,116.62133333333333,,116.62133333333333
16,2003-11-11,111.52,,111.52
16,2003-11-12,105.24000000000001,,105.24000000000001
16,2003-11-13,114.14933333333333,,114.14933333333333
16,2003-11-14,116.27199999999999,,116.27199999999999
16,2003-11-15,115.66666666666667,,115.66666666666667
16,2003-11-16,113.97066666666666,,113.97066666666666
16,2003-11-17,115.536,,115.536
16,2003-11-18,109.49866666666667,,109.49866666666667
16,2003-11-19,103.86666666666667,,103.86666666666667
16,2003-11-20,112.384,,112.384
16,2003-11-21,108.84533333333333,,108.84533333333333
16,2003-11-22,112.448,,112.448
16,2003-11-23,104.62933333333332,,104.62933333333332
16,2003-11-24,108.46933333333334,,108.46933333333334
16,2003-11-25,62.888,,62.888
16,2003-11-26,0.0,,0.0
16,2003-11-27,0.0,,0.0
16,2003-11-28,0.0,,0.0
16,2003-11-29,0.0,,0.0
16,2003-11-30,0.0,,0.0
16,2003-12-01,0.0,,0.0
16,2003-12-02,11.552,,11.552
16,2003-12-03,58.59733333333333,,58.59733333333333
16,2003-12-04,58.28266666666667,,58.28266666666667
16,2003-12-05,89.06400000000001,,89.06400000000001
16,2003-12-06,116.61866666666667,,116.61866666666667
16,2003-12-07,116.528,,116.528
16,2003-12-08,116.81333333333333,,116.81333333333333
16,2003-12-09,116.31466666666667,,116.31466666666667
16,2003-12-10,109.76533333333333,,109.76533333333333
16,2003-12-11,112.42666666666666,,112.42666666666666
16,2003-12-12,116.04,,116.04
16,2003-12-13,117.264,,117.264
16,2003-12-14,116.28533333333333,,116.28533333333333
16,2003-12-15,115.85333333333334,,115.85333333333334
16,2003-12-16,102.44266666666665,,102.44266666666665
16,2003-12-17,113.38666666666667,,113.38666666666667
16,2003-12-18,113.62933333333332,,113.62933333333332
16,2003-12-19,114.464,,114.464
16,2003-12-20,8.290666666666667,,8.290666666666667
16,2003-12-21,0.0,,0.0
16,2003-12-22,55.98933333333333,,55.98933333333333
16,2003-12-23,108.62666666666667,,108.62666666666667
16,2003-12-24,113.60266666666666,,113.60266666666666
16,2003-12-25,82.44533333333334,,82.44533333333334
16,2003-12-26,48.088,,48.088
16,2003-12-27,116.61066666666666,,116.61066666666666
16,2003-12-28,112.37599999999999,,112.37599999999999
16,2003-12-29,109.592,,109.592
16,2003-12-30,114.344,,114.344
16,2003-12-31,114.47733333333333,,114.47733333333333
16,2004-01-01,116.86133333333333,,116.86133333333333
16,2004-01-02,112.27999999999999,,112.27999999999999
16,2004-01-03,107.48533333333334,,107.48533333333334
16,2004-01-04,115.85333333333334,,115.85333333333334
16,2004-01-05,115.44266666666665,,115.44266666666665
16,2004-01-06,116.48266666666666,,116.48266666666666
16,2004-01-07,117.072,,117.072
16,2004-01-08,116.97333333333334,,116.97333333333334
16,2004-01-09,117.592,,117.592
16,2004-01-10,117.68533333333333,,117.68533333333333
16,2004-01-11,115.968,,115.968
16,2004-01-12,114.67466666666667,,114.67466666666667
16,2004-01-13,115.82133333333333,,115.82133333333333
16,2004-01-14,116.16000000000001,,116.16000000000001
16,2004-01-15,116.29333333333334,,116.29333333333334
16,2004-01-16,116.99466666666666,,116.99466666666666
16,2004-01-17,116.472,,116.472
16,2004-01-18,113.49066666666666,,113.49066666666666
16,2004-01-19,115.97333333333334,,115.97333333333334
16,2004-01-20,116.90666666666668,,116.90666666666668
16,2004-01-21,116.57066666666667,,116.57066666666667
16,2004-01-22,109.40266666666668,,109.40266666666668
16,2004-01-23,46.51466666666667,,46.51466666666667
16,2004-01-24,116.15466666666667,,116.15466666666667
16,2004-01-25,116.824,,116.824
16,2004-01-26,116.528,,116.528
16,2004-01-27,114.51466666666666,,114.51466666666666
16,2004-01-28,114.42666666666666,,114.42666666666666
16,2004-01-29,115.39733333333334,,115.39733333333334
16,2004-01-30,114.73333333333333,,114.73333333333333
16,2004-01-31,115.46133333333334,,115.46133333333334
16,2004-02-01,116.75733333333334,,116.75733333333334
16,2004-02-02,116.33066666666667,,116.33066666666667
16,2004-02-03,115.104,,115.104
16,2004-02-04,116.37866666666667,,116.37866666666667
16,2004-02-05,40.19466666666667,,40.19466666666667
16,2004-02-06,0.0,,0.0
16,2004-02-07,0.0,,0.0
16,2004-02-08,0.0,,0.0
16,2004-02-09,0.0,,0.0
16,2004-02-10,0.0,,0.0
16,2004-02-11,0.0,,0.0
16,2004-02-12,0.0,,0.0
16,2004-02-13,0.0,,0.0
16,2004-02-14,0.0,,0.0
16,2004-02-15,0.0,,0.0
16,2004-02-16,0.0,,0.0
16,2004-02-17,0.0,,0.0
16,2004-02-18,0.32,,0.32
16,2004-02-19,0.0,,0.0
16,2004-02-20,0.0,,0.0
16,2004-02-21,0.0,,0.0
16,2004-02-22,0.0,,0.0
16,2004-02-23,0.0,,0.0
16,2004-02-24,0.0,,0.0
16,2004-02-25,0.0,,0.0
16,2004-02-26,39.752,,39.752
16,2004-02-27,118.88799999999999,,118.88799999999999
16,2004-02-28,118.97333333333334,,118.97333333333334
16,2004-02-29,118.62666666666667,,118.62666666666667
16,2004-03-01,118.74400000000001,,118.74400000000001
16,2004-03-02,118.84266666666667,,118.84266666666667
16,2004-03-03,117.95733333333334,,117.95733333333334
16,2004-03-04,119.03733333333334,,119.03733333333334
16,2004-03-05,116.78933333333333,,116.78933333333333
16,2004-03-06,118.97066666666666,,118.97066666666666
16,2004-03-07,118.97066666666666,,118.97066666666666
16,2004-03-08,118.96266666666666,,118.96266666666666
16,2004-03-09,118.944,,118.944
16,2004-03-10,118.96266666666666,,118.96266666666666
16,2004-03-11,118.98933333333333,,118.98933333333333
16,2004-03-12,118.97333333333334,,118.97333333333334
16,2004-03-13,118.98933333333333,,118.98933333333333
16,2004-03-14,118.96533333333333,,118.96533333333333
16,2004-03-15,113.93866666666666,,113.93866666666666
16,2004-03-16,0.0,,0.0
16,2004-03-17,0.0,,0.0
16,2004-03-18,0.0,,0.0
16,2004-03-19,0.0,,0.0
16,2004-03-20,0.0,,0.0
16,2004-03-21,0.0,,0.0
16,2004-03-22,0.8106666666666666,,0.8106666666666666
16,2004-03-23,0.0,,0.0
16,2004-03-24,0.0,,0.0
16,2004-03-25,61.264,,61.264
16,2004-03-26,118.07733333333334,,118.07733333333334
16,2004-03-27,119.08,,119.08
16,2004-03-28,118.65066666666667,,118.65066666666667
16,2004-03-29,116.62133333333333,,116.62133333333333
16,2004-03-30,119.128,,119.128
16,2004-03-31,118.31883333333333,,118.31883333333333
16,2004-04-01,119.08166666666666,,119.08166666666666
16,2004-04-02,119.16779166666667,,119.16779166666667
16,2004-04-03,119.12400000000001,,119.12400000000001
16,2004-04-04,119.067625,,119.067625
16,2004-04-05,118.96629166666666,,118.96629166666666
16,2004-04-06,114.12979166666666,,114.12979166666666
16,2004-04-07,119.07066666666667,,119.07066666666667
16,2004-04-08,118.60216666666668,,118.60216666666668
16,2004-04-09,119.09491666666666,,119.09491666666666
16,2004-04-10,119.03216666666667,,119.03216666666667
16,2004-04-11,119.13191666666667,,119.13191666666667
16,2004-04-12,119.08816666666667,,119.08816666666667
16,2004-04-13,118.99816666666668,,118.99816666666668
16,2004-04-14,118.88516666666668,,118.88516666666668
16,2004-04-15,119.12283333333333,,119.12283333333333
16,2004-04-16,115.3675,,115.3675
16,2004-04-17,114.14166666666667,,114.14166666666667
16,2004-04-18,113.99883333333334,,113.99883333333334
16,2004-04-19,54.0035,,54.0035
16,2004-04-20,0.0,,0.0
16,2004-04-21,62.9895,,62.9895
16,2004-04-22,117.66316666666667,,117.66316666666667
16,2004-04-23,118.1485,,118.1485
16,2004-04-24,118.74233333333332,,118.74233333333332
16,2004-04-25,117.38233333333334,,117.38233333333334
16,2004-04-26,118.15249999999999,,118.15249999999999
16,2004-04-27,118.80566666666665,,118.80566666666665
16,2004-04-28,119.09266666666667,,119.09266666666667
16,2004-04-29,111.432,,111.432
16,2004-04-30,112.50166666666667,,112.50166666666667
16,2004-05-01,112.743,,112.743
16,2004-05-02,118.99866666666667,,118.99866666666667
16,2004-05-03,119.10966666666667,,119.10966666666667
16,2004-05-04,118.81833333333333,,118.81833333333333
16,2004-05-05,117.87966666666667,,117.87966666666667
16,2004-05-06,112.731,,112.731
16,2004-05-07,116.87166666666667,,116.87166666666667
16,2004-05-08,119.05733333333335,,119.05733333333335
16,2004-05-09,116.024,,116.024
16,2004-05-10,109.76766666666667,,109.76766666666667
16,2004-05-11,109.413,,109.413
16,2004-05-12,105.998,,105.998